Overview Statistics Trail Chart Weather Telemetry Raw packets
 

This is the latest recevied weather packets stored in our database for station/object KC3BHK-2. If no packets are shown the sender has not sent any weather packets the latest 10 day(s).

<< 4 5 6 7 8 9 10 >>
Time Temp. Humidity Pressure Rain* Wind** Luminosity Snow
1788561169 27.22° C - - 0 mm 2.24 m/s, 283° - -
1788560864 26.67° C - - 0 mm 1.34 m/s, 221° - -
1788560556 27.22° C - - 0 mm 1.34 m/s, 242° - -
1788560263 27.78° C - - 0 mm 0.89 m/s, 207° - -
1788559947 27.78° C - - 0 mm 1.34 m/s, 197° - -
1788559641 27.78° C - - 0 mm 1.34 m/s, 221° - -
1788559336 28.33° C - - 0 mm 0.89 m/s, 177° - -
1788559031 27.78° C - - 0 mm 0.45 m/s, 165° - -
1788558724 28.33° C - - 0 mm 0 m/s - -
1788558441 27.78° C - - 0 mm 0 m/s - -
1788558113 28.89° C - - 0 mm 0.45 m/s, 160° - -
1788557503 28.33° C - - 0 mm 0 m/s - -
1788557199 29.44° C - - 0 mm 0 m/s - -
1788556891 28.33° C - - 0 mm 0 m/s - -
1788556586 28.33° C - - 0 mm 0 m/s - -
1788556281 28.33° C - - 0 mm 0.45 m/s, 165° - -
1788555976 27.78° C - - 0 mm 0.45 m/s, 215° - -
1788555672 28.33° C - - 0 mm 0.89 m/s, 242° - -
1788555367 27.22° C - - 0 mm 1.79 m/s, 240° - -
1788555059 27.78° C - - 0 mm 0.89 m/s, 218° - -
1788554449 26.67° C - - 0 mm 0.89 m/s, 228° - -
1788554145 26.11° C - - 0 mm 0.89 m/s, 217° - -
1788553840 27.22° C - - 0 mm 0.45 m/s, 139° - -
1788553535 26.67° C - - 0 mm 0.89 m/s, 172° - -
1788553227 26.67° C - - 0 mm 0 m/s - -

* Rain latest hour (hover to see other rain measurements)
** Current wind speed in m/s (hover to see current wind gust speed)